Location: Newark
(47.5833°N, 8.1500°E)
Time: 22:33:45
(UTC+00:00)

Tiros 1 despin weight - Pass Details

Date: 06 November 2020
Orbit: 593 x 642 km, 48.2° (Epoch: 28 November)

Event Time Altitude Azimuth Distance (km) Brightness Sun altitude
Rises 02:36:21 0° 283° (WNW) 2,854 - -37.6°
Reaches altitude 10° 02:39:03 10° 268° (W) 1,940 - -37.1°
Maximum altitude 02:42:26 22° 218° (SW) 1,329 - -36.6°
Drops below altitude 10° 02:45:48 10° 168° (SSE) 1,919 - -36.0°
Sets 02:48:28 0° 153° (SSE) 2,814 - -35.6°
